Skip Page Navigation
NASA JPL Caltech
NASA Logo - Jet Propulsion Laboratory + View the NASA Portal
+ Center for Near-Earth Object Studies
JPL Home Earth Solar System Stars & Galaxies Technology
JPL Solar System Dynamics
BODIES ORBITS EPHEMERIDES TOOLS PHYSICAL DATA DISCOVERY FAQ SITE MAP
JPL Small-Body Database Browser
Search: [ help ]  
115050 (2003 RS5)
Classification: Main-belt Asteroid          SPK-ID: 2115050
Ephemeris | Orbit Diagram | Orbital Elements | Mission Design | Physical Parameters | Discovery Circumstances ]

[ show orbit diagram ]
Orbital Elements at Epoch 2459200.5 (2020-Dec-17.0) TDB
Reference: JPL 14 (heliocentric ecliptic J2000)
 Element Value Uncertainty (1-sigma)   Units 
e .1177068391586698 5.6532e-08  
a 2.328569819611541 1.1376e-08 au
q 2.054481226384792 1.3539e-07 au
i 7.55246555385018 6.6754e-06 deg
node 354.2464175215943 2.8759e-05 deg
peri 38.6145398378597 3.6706e-05 deg
M 296.9235315782586 2.3048e-05 deg
tp 2459427.903524906058
(2021-Aug-01.40352491)
8.3938e-05 TDB
period 1297.873375199355
3.55
9.5112e-06
2.604e-08
d
yr
n .2773768280320133 2.0327e-09 deg/d
Q 2.602658412838289 1.2715e-08 au
  Orbit Determination Parameters
   # obs. used (total)      546  
   data-arc span      7698 days (21.08 yr)  
   first obs. used      1998-04-01  
   last obs. used      2019-04-29  
   planetary ephem.      DE441  
   SB-pert. ephem.      SB441-N16  
   condition code      0  
   norm. resid. RMS      .52313  
   source      ORB  
   producer      Otto Matic  
   solution date      2021-Apr-13 16:41:48  

Additional Information
 Earth MOID = 1.06391 au 
 Jupiter MOID = 2.82517 au 
 T_jup = 3.552 
[ show covariance matrix ]

Ephemeris | Orbit Diagram | Orbital Elements | Mission Design | Physical Parameters | Discovery Circumstances ]

Physical Parameter Table
Parameter Symbol Value Units Sigma Reference Notes
absolute magnitude H 15.9   n/a MPO432660  

115050 (2003 RS5)          Discovered 2003-Sep-03 by NEAT at Haleakala
Reference: 20051019/Numbers.arcLast Updated: 2005-10-26
Ephemeris | Orbit Diagram | Orbital Elements | Mission Design | Physical Parameters | Discovery Circumstances ]
ABOUT SSD CREDITS/AWARDS PRIVACY/COPYRIGHT GLOSSARY LINKS
FirstGov 2021-May-10 03:19 UT
(server date/time)  
NASA Home Page
Site Manager:   Ryan S. Park
Webmaster  Alan B. Chamberlin